Find Starlink 4716

NORAD ID: 53706 Int'l Des: 2022-107 Owner: SPXS Country: US Constellation: starlink operational
LEOCIRCULAR

实时位置

正在加载3D地球...

关于 Starlink 4716

正在加载描述...

即将过境

Passes for default location (London). Set your location on the main map for personalized predictions.

高度历史

Loading altitude history...

两行轨道根数

1 53706U 22107G 26126.12413068 .00000707 00000-0 62513-4 0 9990
2 53706 53.2183 346.3497 0001271 85.1549 274.9588 15.08845729203528
Epoch: May 6, 2026 • Age: 10 hours

当前状态

高度 545.2 km
速度 7.60 km/s
星下点 52.23°N, 0.72°E
发射日期 Sep 5, 2022
运行时间 3.6 years
类型 internet

技术详情

分类 Payload
质量 305.00 kg
干质量 290.00 kg
总质量 305.00 kg
长度 0.20 m
直径 2.80 m
跨度 9.00 m
形状 Box + pan
制造商 SPXS
平台类型 Starlink
阶段状态 In Orbit
所有者/国家 SPXS/US

Most Searched